Tümü
Enua Airport (Atiu (Enua Manu)) AIU Hava Durumu
|
Atiu (Enua Manu) (AIU / NCAT)
Açık
Hafif rüzgârlı |
|
23 °C |
There is no TAF data available at AIU or any nearby airports.
Yakın zamandaki AIU METAR geçmişi
| Date | Time (-10) | Flight Rules | Wind Dir. | Speed | Type | Height AGL (ft) | Visibility | Temp (°C) | Temp (°F) | Dew Point (°C) | Dew Point (°F) | Rel. Humid. | Pressure | Density Altitude | Remarks |
|---|---|---|---|---|---|---|---|---|---|---|---|---|---|---|---|
| 05-Eyl | 06:30 | n/a | 50° | 4 kt | Missing | 23° | 73° | 21° | 69° | 89% | 1013 mb | 1.017 ft | |||
| 05-Eyl | 06:00 | n/a | 50° | 4 kt | Missing | 23° | 73° | 21° | 69° | 89% | 1013 mb | 1.017 ft | |||
| 05-Eyl | 05:30 | n/a | 40° | 5 kt | Missing | 23° | 73° | 21° | 69° | 89% | 1013 mb | 1.017 ft | |||
| 05-Eyl | 05:00 | n/a | 50° | 5 kt | Missing | 23° | 73° | 21° | 69° | 89% | 1013 mb | 1.017 ft | |||
| 05-Eyl | 04:30 | n/a | 50° | 5 kt | Missing | 23° | 73° | 21° | 69° | 89% | 1013 mb | 1.017 ft | |||
| 05-Eyl | 04:00 | n/a | 50° | 6 kt | Missing | 23° | 73° | 21° | 69° | 89% | 1013 mb | 1.017 ft | |||
| 05-Eyl | 03:30 | n/a | 50° | 5 kt | Missing | 23° | 73° | 21° | 69° | 89% | 1013 mb | 1.017 ft | |||
| 05-Eyl | 03:00 | n/a | 50° | 6 kt | Missing | 23° | 73° | 21° | 69° | 89% | 1013 mb | 1.017 ft | |||
| 05-Eyl | 02:30 | n/a | 40° | 8 kt | Missing | 23° | 73° | 21° | 69° | 89% | 1013 mb | 1.017 ft | |||
| 05-Eyl | 02:00 | n/a | 50° | 6 kt | Missing | 23° | 73° | 21° | 69° | 89% | 1013 mb | 1.017 ft | |||
| 05-Eyl | 01:30 | n/a | 60° | 5 kt | Missing | 23° | 73° | 21° | 69° | 89% | 1014 mb | 988 ft | |||
| 05-Eyl | 01:00 | n/a | 60° | 7 kt | Missing | 23° | 73° | 21° | 69° | 89% | 1014 mb | 988 ft | |||
| 05-Eyl | 00:30 | n/a | 70° | 4 kt | Missing | 23° | 73° | 21° | 69° | 89% | 1015 mb | 958 ft | |||
| 05-Eyl | 00:00 | n/a | 70° | 4 kt | Missing | 23° | 73° | 21° | 69° | 89% | 1015 mb | 958 ft | |||
| 04-Eyl | 23:30 | n/a | 80° | 4 kt | Missing | 23° | 73° | 21° | 69° | 89% | 1015 mb | 958 ft | |||
| 04-Eyl | 23:00 | n/a | 80° | 4 kt | Missing | 23° | 73° | 21° | 69° | 89% | 1015 mb | 958 ft | |||
| 04-Eyl | 22:30 | n/a | 60° | 3 kt | Missing | 23° | 73° | 21° | 69° | 89% | 1015 mb | 958 ft | |||
| 04-Eyl | 22:00 | n/a | 90° | 4 kt | Missing | 23° | 73° | 21° | 69° | 89% | 1015 mb | 958 ft | |||
| 04-Eyl | 21:30 | n/a | 110° | 3 kt | Missing | 23° | 73° | 21° | 69° | 89% | 1015 mb | 958 ft | |||
| 04-Eyl | 21:00 | n/a | 130° | 3 kt | Missing | 23° | 73° | 21° | 69° | 89% | 1015 mb | 958 ft | |||
| 04-Eyl | 20:30 | n/a | 140° | 3 kt | Missing | 23° | 73° | 21° | 69° | 89% | 1015 mb | 958 ft | |||
| 04-Eyl | 20:00 | n/a | 130° | 3 kt | Missing | 23° | 73° | 21° | 69° | 89% | 1015 mb | 958 ft | |||
| 04-Eyl | 19:30 | n/a | 120° | 3 kt | Missing | 23° | 73° | 21° | 69° | 89% | 1015 mb | 958 ft | |||
| 04-Eyl | 19:00 | n/a | 110° | 3 kt | Missing | 23° | 73° | 21° | 69° | 89% | 1014 mb | 988 ft |
Giriş
| Tarayıcınız desteklenmiyor. tarayıcınızı yükseltin |
